Weather History for Fort Knox, KY

Change the Weather History Date:

Tuesday, February 5, 2013

  Actual Average Record
Temperature  
Mean Temperature 42 °F -  
Max Temperature 50 °F 43 °F 68 °F (2008)
Min Temperature 34 °F 26 °F 5 °F (2007)
Degree Days  
Heating Degree Days 23    
Moisture  
Dew Point 36 °F    
Average Humidity 85    
Maximum Humidity 100    
Minimum Humidity 55    
Precipitation  
Precipitation 0.00 in - - ()
Sea Level Pressure  
Sea Level Pressure 29.93 in    
Wind  
Wind Speed 9 mph (WSW)    
Max Wind Speed 14 mph    
Max Gust Speed -    
Visibility 7 miles    
Events      
Averages and records for this station are not official NWS values.
T = Trace of Precipitation, MM = Missing Value Source: NWS Daily Summary

Daily Weather History Graph

Daily Weather History Graph

Search for Another Location

Airport:

Trip Planner

Search our weather history database for the weather conditions in past years. The results will help you decide how hot, cold, wet, or windy it might be!

Date:

Astronomy

Feb. 05, 2013 Rise Set
Actual Time 7:44 AM EST 6:12 PM EST
Civil Twilight 7:16 AM EST 6:39 PM EST
Nautical Twilight 6:45 AM EST 7:10 PM EST
Astronomical Twilight 6:14 AM EST 7:41 PM EST
Moon 3:23 AM EST (2/5) 1:30 PM EST (2/5)
Length of Visible Light 11h 22m
Length of Day
10h 27m
Waning Crescent, 27% of the Moon is Illuminated
Feb 5
Waning Crescent
Feb 10
New
Feb 17
First Quarter
Feb 25
Full
Mar 4
Last Quarter

Hourly Weather History & Observations

Time (EST) Temp. Windchill Dew Point Humidity Pressure Visibility Wind Dir Wind Speed Gust Speed Precip Events Conditions
12:40 AM 42.8 °F 37.0 °F 39.2 °F 87% 29.89 in 10.0 mi WSW 10.4 mph - N/A   Overcast
12:54 AM 42.8 °F 37.5 °F 39.2 °F 87% 29.90 in 10.0 mi WSW 9.2 mph - N/A   Overcast
12:55 AM 42.1 °F 36.6 °F 39.4 °F 90% 29.90 in 10.0 mi WSW 9.2 mph - N/A   Overcast
1:52 AM 41.0 °F 34.7 °F 39.2 °F 93% 29.89 in 10.0 mi WSW 10.4 mph - N/A   Overcast
1:55 AM 41.5 °F 34.6 °F 39.2 °F 91% 29.89 in 10.0 mi WSW 12.7 mph - N/A   Overcast
2:03 AM 41.0 °F 34.7 °F 39.2 °F 93% 29.89 in 10.0 mi WSW 10.4 mph - N/A   Overcast
2:15 AM 41.0 °F 33.5 °F 39.2 °F 93% 29.89 in 10.0 mi West 13.8 mph - N/A   Overcast
2:27 AM 41.0 °F 35.2 °F 39.2 °F 93% 29.90 in 10.0 mi West 9.2 mph - N/A   Overcast
2:55 AM 40.6 °F 34.8 °F 38.8 °F 93% 29.89 in 10.0 mi WSW 9.2 mph - N/A   Overcast
3:21 AM 41.0 °F 35.8 °F 39.2 °F 93% 29.89 in 10.0 mi WSW 8.1 mph - N/A   Overcast
3:41 AM 41.0 °F 36.4 °F 39.2 °F 93% 29.88 in 9.0 mi WSW 6.9 mph - N/A   Overcast
3:55 AM 40.1 °F 36.1 °F 38.8 °F 95% 29.88 in 8.0 mi WSW 5.8 mph - N/A   Overcast
4:55 AM 39.7 °F 35.6 °F 38.7 °F 96% 29.90 in 7.0 mi West 5.8 mph - N/A   Overcast
5:15 AM 39.2 °F 34.2 °F 39.2 °F 100% 29.90 in 3.0 mi WSW 6.9 mph - N/A   Overcast
5:21 AM 39.2 °F 34.2 °F 39.2 °F 100% 29.90 in 2.5 mi West 6.9 mph - N/A   Overcast
5:51 AM 39.2 °F 33.6 °F 37.4 °F 93% 29.90 in 3.0 mi West 8.1 mph - N/A   Overcast
5:55 AM 39.0 °F 33.4 °F 38.3 °F 97% 29.90 in 4.0 mi West 8.1 mph - N/A   Overcast
6:09 AM 39.2 °F 34.2 °F 37.4 °F 93% 29.90 in 2.5 mi West 6.9 mph - N/A   Overcast
6:55 AM 38.3 °F 33.2 °F 37.4 °F 97% 29.91 in 1.0 mi West 6.9 mph - N/A   Overcast
7:34 AM 37.4 °F 30.3 °F 37.4 °F 100% 29.92 in 1.8 mi West 10.4 mph - N/A   Overcast
7:55 AM 36.1 °F 30.6 °F 35.1 °F 96% 29.94 in 2.0 mi West 6.9 mph - N/A   Mostly Cloudy
8:14 AM 35.6 °F 28.6 °F 33.8 °F 93% 29.92 in 2.0 mi West 9.2 mph - N/A   Mostly Cloudy
8:30 AM 35.6 °F 29.9 °F 33.8 °F 93% 29.92 in 2.0 mi WSW 6.9 mph - N/A   Mostly Cloudy
8:55 AM 34.9 °F 27.7 °F 33.6 °F 95% 29.98 in 2.0 mi West 9.2 mph - N/A   Overcast
9:55 AM 35.8 °F 28.8 °F 34.0 °F 93% 29.97 in 2.0 mi SW 9.2 mph - N/A   Overcast
10:55 AM 37.0 °F 31.0 °F 34.3 °F 90% 29.99 in 3.0 mi SW 8.1 mph - N/A   Overcast
11:38 AM 39.2 °F 33.6 °F 32.0 °F 75% 29.97 in 4.0 mi WSW 8.1 mph - N/A   Overcast
11:55 AM 39.2 °F 32.5 °F 34.5 °F 83% 29.99 in 10.0 mi SSW 10.4 mph - N/A   Overcast
12:55 PM 42.4 °F 37.0 °F 35.8 °F 77% 29.95 in 10.0 mi SW 9.2 mph - N/A   Overcast
1:55 PM 48.2 °F - 37.4 °F 66% 29.92 in 10.0 mi SSW 9.2 mph - N/A   Overcast
2:55 PM 48.9 °F - 35.1 °F 59% 29.91 in 10.0 mi SW 9.2 mph - N/A   Mostly Cloudy
3:55 PM 49.8 °F - 34.7 °F 56% 29.90 in 10.0 mi SW 8.1 mph - N/A   Mostly Cloudy
4:55 PM 50.5 °F - 34.7 °F 55% 29.90 in 10.0 mi SW 12.7 mph - N/A   Scattered Clouds
5:55 PM 48.9 °F - 35.1 °F 59% 29.90 in 10.0 mi WSW 9.2 mph - N/A   Overcast
6:55 PM 45.0 °F 41.8 °F 32.9 °F 63% 29.93 in 10.0 mi West 5.8 mph - N/A   Partly Cloudy
7:55 PM 42.6 °F 39.9 °F 32.0 °F 66% 29.96 in 10.0 mi WSW 4.6 mph - N/A   Clear
8:55 PM 41.4 °F 36.8 °F 32.7 °F 71% 29.99 in 10.0 mi West 6.9 mph - N/A   Clear
9:55 PM 41.0 °F 38.0 °F 32.5 °F 72% 30.01 in 10.0 mi West 4.6 mph - N/A   Clear
10:55 PM 39.6 °F 37.4 °F 32.4 °F 75% 30.04 in 10.0 mi WNW 3.5 mph - N/A   Clear
11:55 PM 35.8 °F 30.9 °F 30.9 °F 82% 30.06 in 10.0 mi WNW 5.8 mph - N/A   Clear